Location: Caltech
(34.1382°N, 118.1253°W)
Time: 19:47:16
(UTC-08:00)

RS-15 - Visible Passes

Search period start: 24 January 2015 00:00
Search period end: 03 February 2015 00:00
Orbit: 1897 x 2148 km, 64.8° (Epoch: 24 January)

Date Brightness Start Highest point End Pass type
(mag) Time Alt. Az. Time Alt. Az. Time Alt. Az.
24 Jan 9.3 04:10:53 10° SSE 04:20:02 34° ESE 04:29:29 10° NE visible
24 Jan 8.0 06:21:09 10° SW 06:31:55 59° NW 06:42:41 10° NNE visible
24 Jan 10.8 17:44:04 10° WNW 17:49:06 13° WSW 17:52:52 10° WSW visible
25 Jan 9.7 03:36:40 10° SSE 03:44:18 24° ESE 03:52:30 10° NE visible
25 Jan 7.9 05:44:47 10° SW 05:55:45 76° WNW 06:06:44 10° NNE visible
26 Jan 10.0 03:03:29 10° SE 03:08:37 16° ESE 03:14:42 10° ENE visible
26 Jan 7.9 05:08:45 10° SSW 05:19:42 85° ESE 05:30:43 10° NNE visible
27 Jan 8.2 04:33:03 10° SSW 04:43:47 65° ESE 04:54:34 10° NE visible
28 Jan 8.6 03:57:43 10° S 04:07:56 49° ESE 04:18:16 10° NE visible
28 Jan 8.2 06:10:08 10° WSW 06:20:26 44° NW 06:30:42 10° NNE visible
29 Jan 9.0 03:22:50 10° SSE 03:32:09 35° ESE 03:41:44 10° NE visible
29 Jan 8.0 05:33:24 10° SW 05:44:06 56° NW 05:54:50 10° NNE visible
30 Jan 9.4 02:48:30 10° SSE 02:56:25 25° ESE 03:04:50 10° NE visible
30 Jan 7.8 04:56:58 10° SW 05:07:55 73° WNW 05:18:53 10° NNE visible
31 Jan 9.7 02:15:06 10° SE 02:20:43 17° ESE 02:27:12 10° ENE visible
31 Jan 7.8 04:20:53 10° SSW 04:31:51 88° ESE 04:42:52 10° NNE visible
01 Feb 8.0 03:48:12 22° S 03:55:54 68° ESE 04:06:45 10° NE visible
01 Feb 8.5 05:59:35 10° WSW 06:09:11 33° NW 06:18:39 10° NNE visible
02 Feb 8.4 03:15:59 36° SSE 03:20:03 51° ESE 03:30:29 10° NE visible
02 Feb 8.2 05:23:54 15° WSW 05:32:39 42° NW 05:42:50 10° NNE visible
